Powrót do katalogu

STARLINK-4731

AktywnyŁącznośćVLEO
NORAD 53703·PAYLOAD·🇺🇸 United States

Wystrzelony Sep 5, 2022 z Cape Canaveral Space Force Station

Loading…

Następne Przeloty (najbliższe 24 godziny)

TLE

ŚwieżeSource: CelesTrak SupGP

Epoka: Sep 15, 2026, 02:42 UTC

1 53703C 22107D   26258.11298611  .00010869  00000+0  32982-3 0  2580
2 53703  53.1586 110.6425 0001107  89.3715 357.1682 15.33543652    19

Śledź STARLINK-4731 w czasie rzeczywistym z AllMySat

Download on the App Store